TIME,DELAY(SENSOR),PRES,OXYGEN,RAWTEMP,T(OPTODE),TCPHASE,FLUOR,BETA(BETA700),BETA(BETA412),BETA(BETA440),CDOM,C(CSC),ED(ED412.40),ED(ED444.00),ED(ED489.70),ED(ED554.30),LU(LU411.80),LU(LU443.40),LU(LU489.60),LU(LU554.10),COMP,TILTX,TILTY,CHECK
1366430373,5809,838.1599731445312000,42.9004898071289060,654.6558837890625000,4.8037509918212890,54.5039596557617200,52,99,89,79,79,14826,2147754441,2147424466,2148009005,2147872941,2147640429,2147063972,2148252809,2147195172,2020,4,13,57503
1366433969,5806,884.8300170898438000,45.2987709045410160,662.0048217773438000,4.5619511604309080,54.2396011352539060,53,99,87,80,79,14827,2147754624,2147424438,2148009618,2147874386,2147637814,2147058870,2148261705,2147194514,172,4,13,24503
1366437569,5809,904.5999755859375000,45.5360183715820300,662.2755737304688000,4.5530261993408200,54.2096405029296900,52,99,86,78,80,14825,2147754185,2147421668,2148010139,2147874889,2147638683,2147058852,2148257188,2147192137,3231,4,13,9316
1366441169,5810,923.5599975585938000,46.5003013610839840,664.6290893554688000,4.4754562377929690,54.0965385437011700,52,98,85,79,79,14828,2147753270,2147422546,2148012306,2147875026,2147641124,2147055680,2148261513,2147193965,332,4,13,53308
1366444769,5810,925.3300170898438000,46.6887397766113300,666.3425903320312000,4.4189400672912600,54.0861282348632800,52,99,88,81,81,14829,2147753453,2147423369,2148010368,2147875611,2147639350,2147060406,2148259273,2147194441,81,4,13,17040
1366448369,5811,932.4799804687500000,46.0270614624023440,666.4432983398438000,4.4156169891357420,54.1832695007324200,52,97,87,78,80,14829,2147754724,2147422208,2148009965,2147874880,2147637842,2147055204,2148258697,2147194907,54,4,13,12344
1366451969,5810,956.8499755859375000,47.4894218444824200,669.5886840820312000,4.3117828369140625,54.0187911987304700,52,99,88,79,81,14825,2147755355,2147422500,2148009700,2147874221,2147637888,2147053430,2148263067,2147194861,325,4,13,33461
1366455569,5808,963.1300048828125000,48.0148315429687500,669.8469238281250000,4.3032550811767580,53.9475593566894500,53,98,85,79,80,14826,2147753289,2147425106,2148009069,2147875337,2147640036,2147054592,2148264082,2147194605,3531,4,14,27091
1366459169,5809,968.2399902343750000,47.9940795898437500,669.8646850585938000,4.3026680946350100,53.9496002197265600,52,98,88,79,80,14827,2147752347,2147421860,2148010066,2147874249,2147638701,2147055442,2148257773,2147194322,3215,4,13,20045
1366462769,5807,991.5499877929688000,47.9820518493652340,670.8452148437500000,4.2702732086181640,53.9598312377929700,52,98,86,79,79,14826,2147753197,2147427840,2148008923,2147873974,2147640219,2147053741,2148261741,2147191149,199,4,13,27354
1366466369,5809,986.7700195312500000,48.7865791320800800,672.4152221679688000,4.2183818817138670,53.8693809509277340,52,99,83,79,82,14825,2147755099,2147423908,2148010386,2147872640,2147640841,2147049947,2148258514,2147191350,734,4,13,30581
1366469969,5809,992.1099853515625000,48.8598785400390600,672.7695922851562000,4.2066631317138670,53.8640289306640600,52,99,88,78,82,14827,2147756425,2147424146,2148011849,2147875913,2147641298,2147054857,2148258450,2147195236,3541,4,13,21208
1366473569,5809,985.6900024414062000,48.9659118652343750,672.8479003906250000,4.2040748596191410,53.8520584106445300,52,100,86,79,80,14826,2147755062,2147428196,2148013101,2147874998,2147642532,2147053915,2148256768,2147192978,2774,4,13,62709
1366477169,5807,993.2800292968750000,48.8758201599121100,672.7822265625000000,4.2062468528747560,53.8639717102050800,52,98,87,79,80,14824,2147755757,2147424402,2148010432,2147878226,2147641398,2147057462,2148258422,2147198006,3157,4,13,45550
1366480769,5808,994.7299804687500000,48.8606681823730500,672.7177124023438000,4.2083821296691895,53.8646392822265600,52,99,88,78,81,14825,2147760237,2147425097,2148009874,2147873188,2147640356,2147056877,2148254665,2147196004,3453,4,13,16953
1366484369,5807,996.2700195312500000,49.0559005737304700,672.7249755859375000,4.2081379890441895,53.8330917358398440,53,98,87,79,82,14826,2147756480,2147422564,2148010477,2147875894,2147642468,2147058112,2148255369,2147196388,3312,4,13,54633
1366487969,5810,989.8599853515625000,48.7893600463867200,672.8192749023438000,4.2050209045410160,53.8727111816406250,52,100,87,79,79,14825,2147754953,2147427273,2148008484,2147873316,2147642020,2147055798,2148260160,2147199049,400,4,13,60448
1366491569,5806,994.4099731445312000,48.4946708679199200,673.1624145507812000,4.1936740875244140,53.9211692810058600,52,98,88,79,80,14827,2147756544,2147422765,2148010413,2147872768,2147640603,2147057472,2148265645,2147195437,152,4,13,37879
1366495169,5808,981.2199707031250000,48.8813514709472660,672.9074096679688000,4.2021079063415530,53.8625106811523440,53,101,85,79,80,14824,2147756608,2147425115,2148009746,2147874057,2147638784,2147059145,2148260022,2147192603,3214,4,13,47647
1366498769,5809,992.8599853515625000,48.7294807434082000,672.8856201171875000,4.2028288841247560,53.8797607421875000,53,99,87,79,81,14824,2147754505,2147423936,2148010797,2147877248,2147639012,2147050797,2148259638,2147197092,195,4,13,25566
1366502369,5807,992.6300048828125000,48.8023910522460940,673.5183105468750000,4.1819038391113280,53.8782310485839840,52,99,89,79,82,14818,2147758838,2147426121,2148012562,2147874450,2147641837,2147049325,2148254838,2147196077,190,4,13,6083
1366505969,5810,993.9899902343750000,48.6204605102539060,673.3250732421875000,4.1882948875427250,53.9059791564941400,51,98,89,79,78,14822,2147756050,2147425142,2148010331,2147876516,2147638253,2147052772,2148257490,2147198272,3518,4,13,24906
1366509569,5810,987.5100097656250000,48.6895790100097660,673.0726928710938000,4.1966400146484375,53.8940010070800800,52,99,87,79,81,14818,2147759442,2147426825,2148007488,2147878162,2147640466,2147058560,2148256713,2147193051,188,4,13,42540
1366513169,5811,996.2700195312500000,48.8116989135742200,673.7269287109375000,4.1750049591064450,53.8804206848144500,53,97,85,79,80,14811,2147757595,2147424027,2148011355,2147875145,2147641325,2147058861,2148262710,2147194651,352,4,13,29084
1366516769,5810,996.2600097656250000,48.6063613891601560,672.7960815429688000,4.2057881355285645,53.9008293151855500,53,100,83,80,80,14811,2147753865,2147426825,2148010633,2147872804,2147638006,2147053805,2148259081,2147194989,182,4,13,1479
1366520369,5806,990.1599731445312000,48.7178192138671900,673.8922119140625000,4.1695380210876465,53.8983993530273440,52,98,90,79,80,14809,2147754011,2147427949,2148010066,2147872722,2147641362,2147055168,2148258038,2147192521,184,4,13,27760
1366523969,5812,999.4099731445312000,48.6337509155273440,673.2069702148438000,4.1922001838684080,53.9002799987793000,53,97,88,78,81,14807,2147754139,2147426633,2148009371,2147873536,2147639213,2147061577,2148260882,2147187620,17,4,13,12301
1366527569,5812,1006.1699829101562000,48.3155784606933600,672.4620971679688000,4.2168312072753910,53.9367485046386700,52,100,89,79,81,14808,2147753133,2147425746,2148010669,2147873709,2147641261,2147057124,2148259748,2147189723,182,4,13,34057
1366531169,5810,1005.2199707031250000,48.0035209655761700,671.1052856445312000,4.2616767883300780,53.9592285156250000,52,97,87,79,81,14808,2147754688,2147427282,2148009837,2147874642,2147639369,2147057956,2148253348,2147197988,84,4,13,32324
1366534769,5809,1003.3099975585938000,48.1343803405761700,671.9940795898438000,4.2323021888732910,53.9570503234863300,52,98,88,78,82,14808,2147758464,2147426057,2148010944,2147875849,2147642038,2147054875,2148258944,2147196132,3532,4,13,2664
1366538369,5811,1007.5900268554688000,48.0740013122558600,671.3782958984375000,4.2526569366455080,53.9538688659668000,52,99,85,79,82,14809,2147754386,2147425316,2148013833,2147876461,2147640969,2147062473,2148258450,2147197476,420,4,13,17436
1366541969,5806,993.4299926757812000,48.4549293518066400,673.7207031250000000,4.1752090454101560,53.9315109252929700,52,98,87,79,80,14789,2147756004,2147421915,2148009435,2147877366,2147638893,2147051913,2148259785,2147195282,3242,4,13,37020
1366545569,5809,1005.7000122070312000,48.1589889526367200,672.8411254882812000,4.2042980194091800,53.9604415893554700,52,97,89,79,81,14805,2147755739,2147423981,2148008758,2147873042,2147640960,2147061924,2148258432,2147195282,66,4,13,14040
1366549169,5811,1007.7100219726562000,48.7739486694335940,672.8378295898438000,4.2044110298156740,53.8768806457519500,51,97,85,78,80,14803,2147757366,2147426953,2148010742,2147875821,2147641115,2147054546,2148257252,2147195154,2991,4,13,39842
1366552769,5809,1003.5499877929688000,48.7161102294921900,672.0681762695312000,4.2298550605773930,53.8712501525878900,52,97,86,80,80,14807,2147756745,2147428324,2148010560,2147875346,2147641069,2147056219,2148253632,2147194212,3272,4,13,19420
1366556369,5808,995.8699951171875000,48.4725112915039060,673.2963256835938000,4.1892452239990230,53.9200897216796900,52,97,88,80,81,14800,2147756772,2147426130,2148011638,2147876434,2147641984,2147057206,2148257014,2147197714,310,4,13,65078
1366559969,5810,995.7899780273438000,48.7160606384277340,674.1433715820312000,4.1612257957458500,53.9000816345214840,53,97,85,78,81,14801,2147755401,2147423634,2148008795,2147874605,2147638034,2147054409,2148259556,2147192566,72,4,13,5508
1366563569,5813,1000.5800170898438000,48.4310188293457000,673.9329833984375000,4.1681861877441410,53.9373207092285160,53,97,88,78,80,14801,2147757677,2147425152,2148010313,2147874477,2147642550,2147056475,2148261165,2147191094,97,4,13,7917
1366567169,5807,998.2100219726562000,48.5458183288574200,672.8430786132812000,4.2042350769042970,53.9041709899902340,53,100,89,80,80,14802,2147752493,2147424649,2148011355,2147872274,2147639241,2147060306,2148255533,2147197906,315,4,13,16931
1366570769,5812,998.3200073242188000,48.4217605590820300,672.9945068359375000,4.1992259025573730,53.9263114929199200,51,98,86,79,82,14795,2147752777,2147427739,2148010432,2147879021,2147639616,2147059145,2148254829,2147194889,105,4,13,16697
1366574369,5810,995.1599731445312000,48.7754707336425800,674.7907714843750000,4.1398091316223145,53.8978004455566400,52,97,88,78,81,14798,2147757010,2147427254,2148012864,2147874770,2147640384,2147057627,2148257088,2147195044,3567,4,13,56832
1366575055,5809,994.7299804687500000,48.7959289550781250,674.8237304687500000,4.1387209892272950,53.8999214172363300,52,98,86,79,80,14811,2147755748,2147426898,2148009865,2147872740,2147640347,2147061485,2148258459,2147197888,3363,4,13,31354
